Regional Weather Roundup
Issued by NWS

Home | Current Version | Previous Version | Graphics & Text | Print | Product List | Glossary On
Versions: 1 2 3 4 5 6 7 8 9 10 11 12 13 14 15 16 17 18 19 20 21 22 23 24 25 26 27 28 29 30 31 32 33 34 35 36 37 38 39 40 41 42 43 44 45 46 47 48 49 50
000
ASUS43 KMPX 021001
RWRMN
WEATHER ROUNDUP FOR MINNESOTA
NATIONAL WEATHER SERVICE TWIN CITIES/CHANHASSEN MN
400 AM CST MON MAR 02 2015


NOTE: "FAIR" INDICATES FEW OR NO CLOUDS BELOW 12,000 FEET WITH NO
SIGNIFICANT WEATHER AND/OR OBSTRUCTIONS TO VISIBILITY. N/A MEANS
CURRENT SKY AND/OR WEATHER CONDITIONS ARE NOT AVAILABLE.

MNZ060>063-068>070-021100-
   Twin Cities Metro

CITY           SKY/WX    TMP DP  RH WIND       PRES   REMARKS
TWIN CITIES    CLEAR     13   6  74 W5        30.45R WCI   5
ST PAUL        CLEAR     14   8  77 W6        30.47R WCI   5
CRYSTAL        CLEAR     10   5  80 SW3       30.44R
BLAINE         PTCLDY     9   7  92 CALM      30.44R
EDEN PRAIRIE   CLEAR     10   6  84 SW5       30.44S WCI   2
SOUTH ST PAUL  CLEAR     15   8  73 CALM      30.46R
LAKE ELMO      FAIR      12   7  79 CALM      30.44R
$$
MNZ001>005-007-008-013>017-022>024-027-028-021100-
   Northwest Minnesota

CITY           SKY/WX    TMP DP  RH WIND       PRES   REMARKS
BEMIDJI        PTCLDY     1  -1  91 CALM      30.31F
ROSEAU         MOCLDY    -2  -8  78 S3        30.30F
WARROAD        MOCLDY    -6  -9  84 CALM      30.29F
THIEF RVR FALL MOCLDY    -4  -4 100 CALM      30.32S
CROOKSTON      MOCLDY    -2  -6  84 S6        30.36F WCI -14
FOSSTON        PTCLDY    -6  -9  84 S5        30.33F WCI -17
DETROIT LAKES  PTCLDY     1   0  92 CALM      30.36S
MOORHEAD       PTCLDY     1   1 100 S5        30.40S WCI  -8
PARK RAPIDS    PTCLDY    -2  -7  79 S3        30.33S
MAHNOMEN       FAIR      -2  -6  84 S6        30.34F WCI -14
$$
MNZ006-009>011-018-025>026-021100-
   North Central Minnesota

CITY           SKY/WX    TMP DP  RH WIND       PRES   REMARKS
BAUDETTE       MOCLDY    -2  -6  83 CALM      30.27F
FLAG ISLAND    PTCLDY     1  -2  85 CALM      30.27F
INTL FALLS     CLEAR     -2  -7  79 SW5       30.29S WCI -12
WASKISH        PTCLDY     0  -2  92 CALM      30.31F
BIG FORK       CLEAR      1  -2  85 CALM      30.31S
LONGVILLE      PTCLDY    -6  -9  84 CALM      30.35S
GRAND RAPIDS   PTCLDY     7   3  85 W3        30.31S
CRANE LAKE     CLEAR      3   1  92 CALM      30.32R
ORR            CLEAR      1   0  92 CALM      30.27F
COOK           CLEAR      1   0  92 CALM      30.30F
WALKER         FAIR       4   1  86 CALM      30.33F
$$
MNZ012-019>021-037-021100-
   Northeast Minnesota

CITY           SKY/WX    TMP DP  RH WIND       PRES   REMARKS
DULUTH         CLEAR      8   2  76 NW12      30.31S WCI  -7
HIBBING        CLEAR      4   0  83 SW5       30.31S WCI  -5
EVELETH        CLEAR     -2  -6  84 SW3       30.31S
DULUTH HARBOR  CLEAR     12   5  73 SW8       30.39S WCI   1
SILVER BAY     CLEAR      9   3  78 W5        30.30R WCI   0
GRAND MARAIS     N/A     10   2  69 W5        30.31R WCI   2
G MARAIS ARPRT PTCLDY     3  -2  78 W6        30.21R WCI  -8
$$
MNZ029>031-032-039>041-046>048-054>057-064-021100-
   West Central Minnesota

CITY           SKY/WX    TMP DP  RH WIND       PRES   REMARKS
FERGUS FALLS   PTCLDY     1  -2  85 S6        30.44S WCI -10
MORRIS         PTCLDY     7   1  78 SW6       30.41S WCI  -3
ALEXANDRIA     PTCLDY     4   0  83 SW5       30.38F WCI  -5
ELBOW LAKE     FAIR       0  -3  89 S7        30.40S WCI -13
WADENA         MOCLDY     0  -2  92 SW3       30.36S
APPLETON       PTCLDY     3   0  85 W3        30.44F
BENSON         MOCLDY     3   0  85 CALM      30.42F
ORTONVILLE     PTCLDY     7   0  72 SW3       30.42F
MADISON        PTCLDY     7   1  78 W5        30.44F WCI  -2
WILLMAR        FAIR       5   1  85 W3        30.44F
$$
MNZ033>034-036-042>043-049>051-058-059-021100-
   Central Minnesota

CITY           SKY/WX    TMP DP  RH WIND       PRES   REMARKS
ST CLOUD       PTCLDY     6   2  83 CALM      30.41S
SAUK CENTRE    FAIR       5   3  91 CALM      30.40F
PAYNESVILLE    PTCLDY     1   0  92 S6        30.43S WCI -10
PINE RIVER     PTCLDY    -6  -9  84 CALM      30.38F
BRAINERD       PTCLDY     1  -2  87 CALM      30.37F
STAPLES        PTCLDY     0  -2  92 MISG      30.36F
LONG PRAIRIE   FAIR       3   0  85 CALM      30.39S
LITTLE FALLS   MOCLDY     0  -6  78 CALM      30.41R
LITCHFIELD     PTCLDY     7   7 100 SW3       30.44S
MAPLE LAKE     CLEAR     10   8  89 CALM      30.44R
$$
MNZ037-044-045-052-053-021100-
   East Central Minnesota

CITY           SKY/WX    TMP DP  RH WIND       PRES   REMARKS
PRINCETON      PTCLDY     1  -2  85 CALM      30.42R
MORA           PTCLDY    -2  -6  84 CALM      30.42S
CAMBRIDGE      PTCLDY     5  -2  72 CALM      30.40S
RUSH CITY      PTCLDY     6   3  88 CALM      30.41F
MOOSE LAKE     CLEAR      7   3  85 CALM      30.37R
HINCKLEY       FAIR       9   5  85 W6        30.40S WCI  -1
CLOQUET        CLEAR      7   1  78 W8        30.33F WCI  -6
MCGREGOR       PTCLDY     5   3  92 S5        30.36S WCI  -4
$$
MNZ071>073-080-081-089-090-097-098-021100-
   Southwest Minnesota

CITY           SKY/WX    TMP DP  RH WIND       PRES   REMARKS
MONTEVIDEO     MOCLDY     7   3  85 NW6       30.46S WCI  -3
GRANITE FALLS  MOCLDY     2  -1  86 W5        30.47S WCI  -8
CANBY          CLEAR      6   1  83 W3        30.44F
MARSHALL       PTCLDY     7   0  72 W7        30.44F WCI  -5
REDWOOD FALLS  PTCLDY     8   5  87 W7        30.46S WCI  -3
OLIVIA         PTCLDY     5   3  92 W6        30.45S WCI  -6
PIPESTONE      PTCLDY     7   3  85 CALM      30.41S FOG
WINDOM         MOCLDY     3   1  92 CALM      30.43S
WORTHINGTON    PTCLDY     9   0  66 W3        30.45R
JACKSON        MOCLDY     9   5  85 NW5       30.44R WCI   0
TRACY          PTCLDY    10   5  82 W5        30.44S WCI   1
SLAYTON        CLEAR      4   1  83 CALM      30.43R
$$
MNZ065>067-074>077-082>085-091>093-021100-
   South Central Minnesota

CITY           SKY/WX    TMP DP  RH WIND       PRES   REMARKS
MANKATO        PTCLDY    10   5  79 CALM      30.44F
NEW ULM        PTCLDY     3   0  85 W7        30.46S WCI  -9
ST JAMES       MOCLDY     7   3  85 W5        30.47S WCI  -2
FAIRMONT       MOCLDY     9   3  78 NW3       30.43S
GLENCOE        PTCLDY     8   6  91 CALM      30.44F
FARIBAULT      MOCLDY     7   3  85 W5        30.44F WCI  -2
OWATONNA       MOCLDY     3   1  92 CALM      30.44R
WASECA         PTCLDY     1  -2  85 NW3       30.45F
ALBERT LEA     PTCLDY     9   5  85 NW3       30.42S
$$
MNZ078>079-086>088-094>096-021100-
   Southeast Minnesota

CITY           SKY/WX    TMP DP  RH WIND       PRES   REMARKS
ROCHESTER      PTCLDY     8   4  83 NW12      30.41R WCI  -7
RED WING       CLEAR     14   5  67 NW3       30.44R
STANTON        PTCLDY    10   6  84 W5        30.43S WCI   2
DODGE CENTER   MOCLDY    10   9  92 W9        30.41S WCI  -2
WINONA         CLEAR     19  10  68 NW6       30.44S WCI  11
AUSTIN         FAIR      10   7  85 NW6       30.41F WCI   1
PRESTON        CLEAR      9   5  84 NW7       30.40S WCI  -2
$$
ABBREVIATIONS USED IN REMARKS
   TC - TEMPERATURES IN CELSIUS
  WCI - WIND CHILL INDEX
   HX - HEAT INDEX
  VSB - VISIBILITY
$$



USA.gov is the U.S. government's official web portal to all federal, state and local government web resources and services.